Regional Weather Roundup
Issued by NWS

Home | Current Version | Previous Version | Text Only | Print | Product List | Glossary Off
Versions: 1 2 3 4 5 6 7 8 9 10 11 12 13 14 15 16 17 18 19 20 21 22 23 24 25 26 27 28 29 30 31 32 33 34 35 36 37 38 39 40 41 42 43 44 45 46 47 48 49 50

000
ASUS43 KLSX 301510
RWRMO

WEATHER SUMMARY FOR MISSOURI
NATIONAL WEATHER SERVICE SPRINGFIELD MO
1000 AM CDT SUN AUG 30 2015

NOTE: "FAIR" INDICATES FEW OR NO CLOUDS BELOW 12,000 FEET WITH NO
       SIGNIFICANT WEATHER AND/OR OBSTRUCTIONS TO VISIBILITY.
       CURRENT SKY AND/OR WEATHER CONDITIONS ARE NOT AVAILABLE FOR
       CHILLICOTHE AND FARMINGTON.

MOZ001>031-035>038-043-044-053-054-301600-
...NORTHERN AND WESTERN MISSOURI...

CITY           SKY/WX    TMP DP  RH WIND       PRES   REMARKS
KANSAS CTY INT HAZE      70  65  84 E5        30.06S VSB 3/4
KANSAS C DTWN  CLOUDY    72  69  90 CALM      30.05R FOG
LEE`S SUMMIT   CLOUDY    71  69  93 E5        30.06R
ST JOSEPH      CLOUDY    70  66  87 CALM      30.07R
CHILLICOTHE      N/A     70  69  97 E3        30.08R
KIRKSVILLE     CLOUDY    70  68  93 SE7       30.09R FOG

$$
MOZ066>068-077>081-088>096-101>105-301600-
...SOUTHWEST MISSOURI...

CITY           SKY/WX    TMP DP  RH WIND       PRES   REMARKS
SPRINGFIELD    PTSUNNY   74  68  81 S7        30.04F
JOPLIN         PTSUNNY   74  70  87 SE6       30.04R

$$
MOZ032>034-039>042-045>050-055>058-069>072-301600-
...CENTRAL MISSOURI...

CITY           SKY/WX    TMP DP  RH WIND       PRES   REMARKS
COLUMBIA       SUNNY     76  70  82 SE6       30.06S
JEFFERSON CITY PTSUNNY   74  68  81 SE6       30.05S
ROLLA          MOSUNNY   75  68  78 S5        30.06S
SEDALIA        MOSUNNY   76  69  79 SE7       30.06R
WHITEMAN AFB   PTSUNNY   73  73 100 E7        30.04R
WARRENSBURG    CLOUDY    72  70  94 NE3       30.05R
OSAGE BEACH    MOSUNNY   73  66  78 CALM      30.05F

$$
MOZ051-052-059>065-301600-
...EAST CENTRAL MISSOURI...

CITY           SKY/WX    TMP DP  RH WIND       PRES   REMARKS
ST LOUIS INTL  CLOUDY    79  66  64 SW6       30.07S
SPIRIT OF STL  PTSUNNY   77  69  76 CALM      30.05S
ST CHARLES     MOSUNNY   77  70  79 SW5       30.06R

$$
MOZ072>076-082>087-097>100-106>115-301600-
...SOUTH CENTRAL AND SOUTHEAST MISSOURI...

CITY           SKY/WX    TMP DP  RH WIND       PRES   REMARKS
CAPE GIRARDEAU PTSUNNY   74  71  91 SE7       30.08R
FARMINGTON     SUNNY     75  68  78 S8        30.11R
POPLAR BLUFF   SUNNY     77  70  79 S6        30.06R
WEST PLAINS    CLOUDY    74  67  78 CALM      30.09S

$$


USA.gov is the U.S. government's official web portal to all federal, state and local government web resources and services.